GW6501 Weather Reports


Display with metric or nautical units.
time (UTC)temp
F
wind
direction
speed
MPH
gust
MPH
rain 1hr
in
rain 24hr
in
rain mn
in
humidity
%
barometer
mb
20260509185403 83 232 1.0 3.0 0.00 0.00 0.00 69 1010.6
20260509184504 82 225 2.0 4.0 0.00 0.00 0.00 72 1010.8
20260509183603 82 230 2.0 3.0 0.00 0.00 0.00 72 1010.9
20260509182703 82 250 1.0 3.0 0.00 0.00 0.00 72 1011.0
20260509181803 82 222 1.0 3.0 0.00 0.00 0.00 74 1011.1
20260509180904 82 224 1.0 2.0 0.00 0.00 0.00 74 1011.0
20260509180004 81 229 0.0 2.0 0.00 0.00 0.00 76 1011.2
20260509175403 79 210 0.0 2.0 0.00 0.00 0.00 80 1011.3
20260509174503 80 222 0.0 4.0 0.00 0.00 0.00 82 1011.4
20260509173603 82 224 1.0 2.0 0.00 0.00 0.00 77 1011.7
20260509172703 80 225 0.0 2.0 0.00 0.00 0.00 78 1011.7
20260509171803 78 246 0.0 2.0 0.00 0.00 0.00 84 1011.7
20260509170903 79 217 1.0 3.0 0.00 0.00 0.00 83 1011.5
20260509170004 80 234 0.0 2.0 0.00 0.00 0.00 80 1011.5
20260509165403 79 233 0.0 2.0 0.00 0.00 0.00 82 1012.1
20260509164711 80 220 1.0 2.0 0.00 0.00 0.00 81 1012.1
20260509163603 79 231 1.0 3.0 0.00 0.00 0.00 83 1012.1
20260509162704 79 217 1.0 3.0 0.00 0.00 0.00 82 1012.3
20260509161803 78 219 1.0 3.0 0.00 0.00 0.00 83 1012.1
20260509161111 78 220 0.0 2.0 0.00 0.00 0.00 83 1012.3
20260509160004 76 197 1.0 4.0 0.00 0.00 0.00 87 1012.0
20260509155611 75 185 1.0 2.0 0.00 0.00 0.00 87 1012.1
20260509154504 76 210 0.0 2.0 0.00 0.00 0.00 88 1012.4
20260509153604 77 205 0.0 2.0 0.00 0.00 0.00 88 1012.2
20260509152703 77 212 0.0 2.0 0.00 0.00 0.00 86 1012.0
20260509152010 77 216 0.0 1.0 0.00 0.00 0.00 87 1012.0
20260509150904 77 187 0.0 1.0 0.00 0.00 0.00 88 1011.8
20260509150004 76 196 0.0 1.0 0.00 0.00 0.00 88 1011.4
20260509145403 77 202 0.0 2.0 0.00 0.00 0.00 88 1011.8
20260509144504 76 213 0.0 2.0 0.00 0.00 0.00 89 1011.5
20260509143604 75 199 0.0 1.0 0.00 0.00 0.00 90 1011.4
20260509142704 74 217 1.0 4.0 0.00 0.00 0.00 93 1011.4
20260509142011 73 302 2.0 5.0 0.00 0.00 0.00 95 1011.5
20260509140903 74 189 1.0 4.0 0.00 0.00 0.00 95 1011.8
20260509140005 74 210 1.0 3.0 0.00 0.00 0.00 95 1011.8
20260509135403 74 188 2.0 7.0 0.00 0.01 0.00 96 1011.4
20260509134503 73 181 3.0 6.0 0.00 0.04 0.00 97 1011.7
20260509133811 73 163 1.0 4.0 0.00 0.05 0.00 98 1011.9
20260509132703 73 293 2.0 4.0 0.00 0.09 0.00 99 1011.7
20260509131803 73 177 1.0 4.0 0.00 0.10 0.00 99 1011.4
20260509130903 72 244 1.0 4.0 0.00 0.18 0.00 99 1011.8
20260509130004 72 83 2.0 3.0 0.00 0.38 0.00 99 1011.7
20260509125403 72 81 2.0 3.0 0.00 0.42 0.00 99 1011.7
20260509124711 72 54 1.0 4.0 0.00 0.45 0.00 99 1011.8
20260509123603 72 25 2.0 4.0 0.00 0.54 0.00 99 1011.4
20260509122704 72 20 2.0 4.0 0.00 0.56 0.00 99 1011.4
20260509121804 72 125 1.0 4.0 0.00 0.56 0.00 99 1012.0
20260509121111 72 175 2.0 5.0 0.00 0.56 0.00 99 1012.0
20260509120004 72 215 1.0 4.0 0.00 0.56 0.00 99 1011.4
20260509115611 72 194 2.0 4.0 0.00 0.56 0.00 99 1011.4
20260509114711 72 358 1.0 4.0 0.00 0.56 0.00 99 1011.8
20260509113811 72 100 2.0 4.0 0.00 0.56 0.00 99 1011.4
20260509112703 72 188 0.0 3.0 0.00 0.56 0.00 99 1011.3
20260509111804 72 224 0.0 1.0 0.00 0.56 0.00 98 1011.1
20260509110903 72 217 0.0 1.0 0.00 0.56 0.00 98 1010.9
20260509110004 72 165 0.0 1.0 0.00 0.56 0.00 98 1010.9
20260509105611 72 185 0.0 1.0 0.00 0.56 0.00 98 1010.9
20260509104711 72 231 0.0 1.0 0.00 0.56 0.00 98 1010.6
20260509103603 72 0 0.0 0.0 0.00 0.56 0.00 98 1010.7
20260509102911 72 0 0.0 0.0 0.00 0.56 0.00 98 1010.8
20260509101804 72 135 0.0 1.0 0.00 0.56 0.00 97 1010.7
20260509100903 72 138 0.0 1.0 0.00 0.56 0.00 97 1010.9
20260509100005 72 125 0.0 1.0 0.00 0.56 0.00 97 1011.1
20260509095403 72 125 0.0 1.0 0.00 0.56 0.00 97 1011.0
20260509094503 72 0 0.0 0.0 0.00 0.56 0.00 97 1011.2
20260509093603 72 0 0.0 0.0 0.00 0.56 0.00 97 1011.3
20260509092910 72 224 0.0 1.0 0.00 0.56 0.00 97 1011.4
20260509092011 72 225 0.0 1.0 0.00 0.56 0.00 97 1011.1
20260509090903 72 135 0.0 1.0 0.00 0.56 0.00 97 1010.8
20260509090004 72 121 0.0 1.0 0.00 0.56 0.00 97 1010.7
20260509085611 72 112 0.0 1.0 0.00 0.56 0.00 97 1011.0
20260509084711 72 0 0.0 0.0 0.00 0.56 0.00 96 1011.3
20260509083603 72 0 0.0 0.0 0.00 0.56 0.00 96 1011.3
20260509082703 72 0 0.0 0.0 0.00 0.56 0.00 96 1011.4
20260509082011 72 0 0.0 0.0 0.00 0.56 0.00 96 1011.3
20260509080903 72 0 0.0 0.0 0.00 0.56 0.00 96 1011.3
20260509080004 72 0 0.0 0.0 0.00 0.56 0.00 96 1011.5
20260509075403 72 0 0.0 0.0 0.00 0.56 0.00 96 1011.2
20260509074503 72 157 0.0 1.0 0.00 0.56 0.00 96 1011.4
20260509073603 72 134 0.0 1.0 0.00 0.56 0.00 96 1011.5
20260509072703 72 157 0.0 1.0 0.00 0.56 0.00 96 1011.7
20260509071804 72 198 0.0 1.0 0.00 0.56 0.00 96 1011.4
20260509070904 72 169 0.0 2.0 0.00 0.56 0.00 96 1011.4
20260509070211 72 174 0.0 2.0 0.00 0.56 0.00 96 1011.4
20260509065404 72 170 1.0 4.0 0.00 0.56 0.00 96 1011.3
20260509064503 72 177 0.0 3.0 0.00 0.56 0.00 96 1011.4
20260509063603 72 196 1.0 3.0 0.00 0.56 0.00 96 1011.4
20260509062703 72 194 0.0 3.0 0.00 0.56 0.00 96 1011.4
20260509061803 72 204 1.0 3.0 0.00 0.56 0.00 95 1011.5
20260509060903 72 197 0.0 2.0 0.00 0.56 0.00 95 1011.7
20260509060005 72 197 0.0 2.0 0.00 0.56 0.00 94 1011.5
20260509055404 72 133 0.0 2.0 0.00 0.56 0.00 94 1011.5
20260509054503 72 127 0.0 2.0 0.00 0.56 0.00 95 1011.4
20260509053603 72 176 1.0 4.0 0.00 0.56 0.00 95 1011.4
20260509052704 72 188 0.0 2.0 0.00 0.56 0.00 94 1011.2
20260509051804 72 163 0.0 3.0 0.00 0.56 0.00 94 1011.4
20260509050904 72 163 0.0 2.0 0.00 0.56 0.00 95 1011.4
20260509050005 72 167 0.0 1.0 0.00 0.56 0.00 94 1011.5
20260509045403 72 195 0.0 2.0 0.00 0.56 0.56 94 1011.7
20260509044504 72 191 0.0 2.0 0.00 0.56 0.56 94 1011.8
20260509043604 71 183 0.0 3.0 0.00 0.56 0.56 94 1011.9
20260509042911 71 207 0.0 3.0 0.00 0.56 0.56 94 1011.9
20260509041804 71 163 0.0 2.0 0.00 0.56 0.56 94 1012.0
20260509040904 71 191 0.0 2.0 0.00 0.56 0.56 94 1011.5
20260509040004 71 163 0.0 2.0 0.00 0.56 0.56 94 1011.3
20260509035403 70 177 0.0 2.0 0.00 0.56 0.56 94 1011.4
20260509034503 70 176 0.0 2.0 0.00 0.56 0.56 94 1011.7
20260509033604 70 164 0.0 1.0 0.00 0.56 0.56 94 1011.4
20260509032703 70 0 0.0 0.0 0.00 0.56 0.56 94 1011.4
20260509031803 70 132 0.0 1.0 0.00 0.56 0.56 94 1011.2
20260509030903 70 178 0.0 2.0 0.00 0.56 0.56 94 1011.1
20260509030003 70 164 0.0 2.0 0.00 0.56 0.56 94 1011.2
20260509025404 70 160 0.0 1.0 0.00 0.56 0.56 94 1011.0
20260509024503 70 168 0.0 2.0 0.00 0.56 0.56 94 1010.8
20260509023603 70 163 0.0 2.0 0.00 0.56 0.56 93 1010.5
20260509022704 70 153 0.0 3.0 0.00 0.56 0.56 93 1010.7
20260509021804 70 117 0.0 1.0 0.00 0.56 0.56 93 1010.7
20260509020904 71 0 0.0 0.0 0.00 0.56 0.56 92 1010.8
20260509020004 72 94 0.0 1.0 0.00 0.56 0.56 88 1010.5
20260509015404 72 333 0.0 1.0 0.00 0.56 0.56 88 1010.7
20260509014711 72 0 0.0 0.0 0.00 0.56 0.56 90 1010.5
20260509013604 71 0 0.0 0.0 0.00 0.56 0.56 90 1010.7
20260509012703 72 22 0.0 2.0 0.00 0.56 0.56 89 1010.6
20260509012011 72 128 0.0 1.0 0.00 0.56 0.56 88 1010.4
20260509010903 72 99 0.0 2.0 0.00 0.56 0.56 87 1010.8
20260509010004 73 58 0.0 2.0 0.00 0.56 0.56 87 1010.8
20260509005404 73 35 0.0 2.0 0.00 0.56 0.56 86 1010.6
20260509004504 73 68 0.0 2.0 0.00 0.56 0.56 85 1010.8
20260509003811 73 60 0.0 2.0 0.00 0.56 0.56 85 1010.8
20260509002704 74 58 0.0 1.0 0.00 0.56 0.56 84 1010.8
20260509001803 74 62 0.0 1.0 0.00 0.56 0.56 83 1011.0
20260509001111 74 93 0.0 2.0 0.00 0.56 0.56 82 1011.1
20260509000211 74 66 0.0 2.0 0.00 0.56 0.56 81 1010.9
20260508235403 75 127 0.0 2.0 0.00 0.56 0.56 79 1011.0
20260508234503 76 149 0.0 3.0 0.00 0.56 0.56 79 1011.0
20260508233604 75 69 0.0 3.0 0.00 0.56 0.56 79 1011.1
20260508232703 76 130 0.0 2.0 0.00 0.56 0.56 78 1011.0
20260508231803 76 78 0.0 3.0 0.00 0.56 0.56 79 1010.9
20260508230903 74 45 0.0 2.0 0.00 0.56 0.56 80 1010.8
20260508230004 75 43 0.0 3.0 0.00 0.56 0.56 81 1011.1
20260508225404 75 60 0.0 3.0 0.00 0.56 0.56 81 1011.1
20260508224503 75 85 0.0 3.0 0.00 0.56 0.56 82 1011.2
20260508223604 76 35 0.0 3.0 0.00 0.56 0.56 80 1010.9
20260508222703 74 48 1.0 4.0 0.00 0.56 0.56 82 1010.9
20260508221803 73 39 1.0 4.0 0.00 0.56 0.56 82 1011.1
20260508221111 74 55 1.0 3.0 0.00 0.56 0.56 81 1011.0
20260508220004 74 63 0.0 3.0 0.00 0.56 0.56 83 1011.1
20260508215404 75 58 0.0 2.0 0.00 0.56 0.56 82 1011.1
20260508214507 75 56 0.0 2.0 0.00 0.56 0.56 82 1011.1
20260508213603 75 1 0.0 2.0 0.00 0.56 0.56 80 1011.0
20260508212704 75 130 0.0 2.0 0.00 0.56 0.56 81 1011.2
20260508211803 75 42 0.0 2.0 0.00 0.56 0.56 83 1011.5
20260508210903 75 69 0.0 2.0 0.00 0.56 0.56 82 1011.5
20260508210004 75 39 0.0 2.0 0.00 0.56 0.56 81 1011.5
20260508205403 75 61 0.0 2.0 0.00 0.56 0.56 79 1011.7
20260508204504 75 9 0.0 2.0 0.00 0.56 0.56 77 1011.5
20260508203603 76 182 0.0 2.0 0.00 0.56 0.56 74 1011.9
20260508202703 76 214 0.0 2.0 0.00 0.56 0.56 75 1011.7
20260508201804 77 232 0.0 2.0 0.00 0.56 0.56 71 1011.8
20260508200903 75 246 1.0 3.0 0.00 0.56 0.56 76 1012.1
20260508200004 75 219 1.0 2.0 0.00 0.56 0.56 73 1012.1
20260508195611 76 196 0.0 2.0 0.00 0.56 0.56 73 1012.1
20260508194503 74 175 0.0 3.0 0.00 0.56 0.56 74 1012.2
20260508193604 73 211 1.0 4.0 0.00 0.56 0.56 78 1012.1
20260508192704 73 220 1.0 3.0 0.00 0.56 0.56 80 1012.3
20260508191803 71 84 0.0 2.0 0.00 0.56 0.56 85 1012.3
20260508191111 72 91 1.0 4.0 0.00 0.56 0.56 83 1012.3
20260508190004 69 91 1.0 4.0 0.00 0.56 0.56 85 1012.4